OneWeb SL0407

operational
NORAD ID: 50487 Int'l Des: 2021-132 Owner: ONEWEBN Country: UK Constellation: oneweb
LEOCIRCULARPOLARONEWEB_TYPE

Über OneWeb SL0407

Beschreibung wird geladen...

Live-Position

3D-Globus wird geladen...

Nächste Überflüge

Höhenverlauf

Altitude vs Time

uPlot chart will show altitude changes over time

Zweizeiliger Elementsatz

1 50487U 21132U 26035.93912362 .00000093 00000-0 20266-3 0 9995
2 50487 87.9217 1.6985 0001683 83.4413 276.6910 13.18687606204137
Epoch: 4. Feb. 2026 • Age: 15 hours

Aktueller Status

Höhe 1201.8 km
Geschwindigkeit 7.26 km/s
Subsatellitenpunkt 77.70°N, 168.03°W
Startdatum 27. Dez. 2021
Alter 4.1 years
Typ internet

Technische Details

Klassifizierung Payload
Masse 148.00 kg
Trockenmasse 140.00 kg
Gesamtmasse 148.00 kg
Länge 1.30 m
Durchmesser 1.00 m
Spannweite 5.00 m
Form Trapezoid+2 pan
Hersteller ONEWUS
Bus-Typ ARROW
Phasenstatus In Orbit
Besitzer/Staat ONEWEBN/UK

Große Konstellationen

Loading constellations...